Preview of NWS' New Version of Forecast
This preview is not operational and should not be used for support decisions.

Regional Weather Roundup (RWR)

Issued by National Weather Service (NWS)

                            
000
ASUS44 KMEG 230200
RWRTN 
TENNESSEE HOURLY STATE WEATHER ROUNDUP
NATIONAL WEATHER SERVICE MEMPHIS TN
900 PM CDT WED MAY 22 2019

TNZ002-004-019-021-049-052-054-088>092-230300-
WEST TENNESSEE
  
CITY           SKY/WX    TMP DP  RH WIND       PRES   REMARKS
MEMPHIS INTL   FAIR      83  73  72 S9        29.98R                  
NWS MEMPHIS      N/A     82 N/A N/A MISG        N/A                   
JACKSON        FAIR      80  73  79 S5        30.01R                  
DYERSBURG      FAIR      81  71  71 S5        29.98R                  
$$

TNZ008-025-027-028-033-062-065-066-230300-
NORTH MIDDLE TENNESSEE
  
CITY           SKY/WX    TMP DP  RH WIND       PRES   REMARKS
NASHVILLE      FAIR      80  61  52 S9        30.06R                  
CLARKSVILLE    MOCLDY    80  67  64 S3        30.02R                  
SMYRNA         FAIR      80  60  50 S5        30.08R                  
CROSSVILLE     FAIR      73  57  57 W3        30.17R                  
$$

TNZ061-075-076-078-094-096-097-230300-
SOUTH MIDDLE TENNESSEE
  
CITY           SKY/WX    TMP DP  RH WIND       PRES   REMARKS
$$

TNZ017-018-042-046-047-230300-
NORTHEAST TENNESSEE
  
CITY           SKY/WX    TMP DP  RH WIND       PRES   REMARKS
TRI CITIES     FAIR      77  62  59 SE5       30.18R                  
$$

TNZ012-013-036-069-073-074-230300-
CENTRAL EAST TENNESSEE
  
CITY           SKY/WX    TMP DP  RH WIND       PRES   REMARKS
KNOXVILLE      FAIR      80  63  55 S7        30.11R                  
OAK RIDGE      FAIR      80  63  55 CALM      30.13R                  
$$

TNZ083-085-099-230300-
SOUTHEAST TENNESSEE
  
CITY           SKY/WX    TMP DP  RH WIND       PRES   REMARKS
CHATTANOOGA    FAIR      80  65  59 CALM      30.11R                  
$$

SKY/WX REPORTED AS FAIR MEANS FEW OR NO CLOUDS BELOW
12 THOUSAND FEET.